Location: Niagara
(43.2500°N, 79.0670°W)
Time: 16:51:01
(UTC-04:00)

Tiangong 2 - Pass Details

Date: 16 October 2017
Orbit: 388 x 391 km, 42.8° (Epoch: 23 October)

Event Time Altitude Azimuth Distance (km) Brightness Sun altitude
Exits shadow 06:13:05 36° 264° (W) 637 1.6 -15.0°
Maximum altitude 06:14:13 69° 191° (S) 419 1.1 -14.8°
Drops below altitude 10° 06:17:24 10° 107° (ESE) 1,419 5.1 -14.2°
Sets 06:19:29 0° 105° (ESE) 2,274 6.6 -13.9°
